This is the latest recevied weather packets stored in our database for station/object N7MLR. If no packets are shown the sender has not sent any weather packets the latest 10 day(s).
| Time | Temp. | Humidity | Pressure | Rain* | Wind** | Luminosity | Snow |
|---|---|---|---|---|---|---|---|
| 1777814643 | 12.22° C | 97% | 1022.5 hPa | 0 mm | - | 113 W/m² | - |
| 1777814339 | 11.67° C | 99% | 1022.7 hPa | 0 mm | - | 86 W/m² | - |
| 1777814036 | 12.22° C | 99% | 1022.5 hPa | 0 mm | - | 96 W/m² | - |
| 1777813733 | 11.11° C | 99% | 1022.4 hPa | 0 mm | - | 82 W/m² | - |
| 1777813430 | 11.67° C | 99% | 1022.3 hPa | 0 mm | - | 62 W/m² | - |
| 1777813128 | 11.11° C | 99% | 1022.2 hPa | 0 mm | - | 46 W/m² | - |
| 1777812826 | 10° C | 99% | 1022.4 hPa | 0 mm | - | 41 W/m² | - |
| 1777812522 | 9.44° C | 99% | 1022.3 hPa | 0 mm | - | 33 W/m² | - |
| 1777812220 | 8.89° C | 99% | 1022.4 hPa | 0 mm | - | 28 W/m² | - |
| 1777811918 | 8.89° C | 99% | 1022.4 hPa | 0 mm | - | 25 W/m² | - |
| 1777811617 | 8.33° C | 99% | 1022.2 hPa | 0 mm | - | 23 W/m² | - |
| 1777811311 | 8.33° C | 99% | 1021.9 hPa | 0 mm | - | 21 W/m² | - |
| 1777811009 | 7.78° C | 99% | 1022.1 hPa | 0 mm | - | 18 W/m² | - |
| 1777810706 | 7.78° C | 99% | 1022 hPa | 0 mm | - | 16 W/m² | - |
| 1777810403 | 7.78° C | 99% | 1021.7 hPa | 0 mm | - | 12 W/m² | - |
| 1777810098 | 7.78° C | 99% | 1021.7 hPa | 0 mm | - | 10 W/m² | - |
| 1777809796 | 7.22° C | 99% | 1021.7 hPa | 0 mm | - | 7 W/m² | - |
| 1777809494 | 7.78° C | 99% | 1021.5 hPa | 0 mm | - | 5 W/m² | - |
| 1777809191 | 7.22° C | 99% | 1021.7 hPa | 0 mm | - | 2 W/m² | - |
| 1777808889 | 7.78° C | 99% | 1021.6 hPa | 0 mm | - | 0 W/m² | - |
| 1777808585 | 7.78° C | 99% | 1021.5 hPa | 0 mm | - | 0 W/m² | - |
| 1777808282 | 7.78° C | 99% | 1022 hPa | 0 mm | - | 0 W/m² | - |
| 1777807981 | 7.78° C | 99% | 1021.6 hPa | 0 mm | - | 0 W/m² | - |
| 1777807678 | 7.78° C | 99% | 1021.7 hPa | 0 mm | - | 0 W/m² | - |
| 1777807376 | 7.78° C | 99% | 1021.6 hPa | 0 mm | - | 0 W/m² | - |
* Rain latest hour (hover to see other rain measurements)
** Current wind speed in m/s (hover to see current wind gust speed)